Regional Weather Roundup
Issued by NWS Grand Forks, ND

Home | Current Version | Previous Version | Graphics & Text | Print | Product List | Glossary On
Versions: 1 2 3 4 5 6 7 8 9 10 11 12 13 14 15 16 17 18 19 20 21 22 23 24 25 26 27 28 29 30 31 32 33 34 35 36 37 38 39 40 41 42 43 44 45 46 47 48 49 50
000
ASUS43 KFGF 290831
RWRFGF
PRAIRIE TO PINES  WEATHER ROUNDUP
NATIONAL WEATHER SERVICE EASTERN NORTH DAKOTA/GRAND FORKS ND
200 AM CST THU JAN 29 2015

 **SATELLITE DATA USED TO AUGMENT SKY COVER AT AUTOMATED STATIONS**
 *****  WEATHER ACROSS EASTERN NORTH DAKOTA  *****

CITY           SKY/WX    TMP DP  RH WIND       PRES   REMARKS
GRAND FORKS    CLOUDY    21  16  79 N23G33    30.19R WCI   5
GRAND FRKS AFB CLOUDY    23  17  80 N18G30    30.20R WCI   8
GRAND FRKS NWS   N/A     21 N/A N/A N16         N/A  WCI   7
DEVILS LAKE    CLOUDY    21  16  79 NW18G25   30.22R WCI   6
FARGO          CLOUDY    27  21  78 NW21      30.14R WCI  13
WAHPETON ARPT  CLOUDY    28  23  80 N24G32    30.14R WCI  14
$$

 ***** WEATHER ACROSS CENTRAL AND WESTERN NORTH DAKOTA  *****

CITY           SKY/WX    TMP DP  RH WIND       PRES   REMARKS
BISMARCK       CLOUDY    32  28  85 NW15      30.29R WCI  22
MINOT          CLOUDY    26  20  77 NW17      30.29R WCI  13
JAMESTOWN      CLOUDY    27  22  81 NW23G30   30.19R WCI  12
MINOT AFB      CLOUDY    25  25 100 NW18      30.30R WCI  11
GARRISON         N/A     28  24  85 N21       30.29R WCI  15
WILLISTON      CLOUDY    29  22  75 NW9G21    30.37R WCI  20
DICKINSON      CLOUDY    32  24  72 NW16G25   30.29R WCI  21
HETTINGER      CLOUDY    33  25  72 NW14      30.32R WCI  23
$$

 *****  OTHER AIRPORT OBSERVATIONS IN OUR AREA  *****

CITY           SKY/WX    TMP DP  RH WIND       PRES   REMARKS
WALHALLA         N/A     16  16 100 NW17G28   30.26R WCI   0
GRAFTON AIRPOR NOT AVBL
VALLEY CITY AR FLURRIES  25  25 100 NW21G28   30.19R WCI  10
CANDO          CLOUDY    23  19  86 NW15G23   30.25R WCI  10
CAVALIER APRT  CLOUDY    18  12  79 N21G26    30.25R WCI   1
GWINNER        CLOUDY    30  28  93 NW25G35   30.18R WCI  16
ROLLA          CLOUDY    19  19 100 MISG      30.24R
 ***** THE ABOVE OBSERVATIONS ARE NON NWS ARE NOT QUALITY
       CONTROLLED AND MAY MIS-REPORT RAIN FOR SNOW...
$$

  *****  WEATHER ACROSS NORTHERN MINNESOTA  *****

CITY           SKY/WX    TMP DP  RH WIND       PRES   REMARKS
FLAG ISLAND    CLOUDY    19  18  93 NW21G28   30.04R FOG     WCI   3
WARROAD        CLOUDY    19  16  86 NW17G28   30.08R WCI   4
ROSEAU         CLOUDY    19  16  86 NW16      30.09R WCI   5
HALLOCK        CLOUDY    16  10  79 NW24G31   30.20R WCI  -3
THF RVR FALLS  CLOUDY    18  14  86 NW21      30.12R WCI   1
BAUDETTE       CLOUDY    24  21  88 NW24G31   30.00R WCI   8
WASKISH        CLOUDY    27  25  93 NW13G22   30.01R WCI  16
CROOKSTON      CLOUDY    19  18  93 N26G32    30.17R WCI   1
STEPHEN NDAWN    N/A     18  12  79 N23         N/A  WCI   0
GREENBUSH NDAW   N/A     18  14  86 NW20        N/A  WCI   1
$$
  *****  WEATHER ACROSS CENTRAL AND WEST MINNESOTA  *****

CITY           SKY/WX    TMP DP  RH WIND       PRES   REMARKS
FOSSTON        CLOUDY    18  16  93 NW14      30.09R WCI   4
BEMIDJI        CLOUDY    25  24  95 NW18      30.00R FOG     WCI  12
PARK RAPIDS    CLOUDY    27  24  89 NW22G28   29.98R WCI  13
ELBOW LAKE     CLOUDY    26  24  94 N24G31    30.07R WCI  11
WADENA         CLOUDY    25  25 100 NW17G25   30.01R FOG     WCI  11
DETROIT LAKES  CLOUDY    23  23 100 NW23G29   30.07R WCI   7
MOORHEAD       CLOUDY    27  27 100 N23G29    30.15R WCI  12
FERGUS FALLS   CLOUDY    25  25 100 N28G36    30.12R WCI   8
MORRIS MN      CLOUDY    28  27  93 NW28G39   30.04R WCI  13
STAPLES        CLOUDY    28  27  93 NW18      29.98R FOG     WCI  16
$$
  *****  WEATHER ELSEWHERE ACROSS MINNESOTA  *****

CITY           SKY/WX    TMP DP  RH WIND       PRES   REMARKS
DULUTH         CLOUDY    30  26  85 NW14G25   29.82R WCI  19
INTRNTL FALLS  CLOUDY    28  22  78 NW14      29.92R WCI  17
ELY            CLOUDY    27  23  86 NW15G24   29.84R WCI  15
CLOQUET        CLOUDY    30  28  93 NW12G17   29.84R WCI  21
WHEATON        CLOUDY    27  25  93 NW24G35   30.14R WCI  12
BRAINERD       CLOUDY    32  29  88 NW20G26   29.94R WCI  20
HIBBING        CLOUDY    30  24  78 NW24G31   29.86R WCI  16
ALEXANDRIA     CLOUDY    28  25  88 NW21G31   29.99R WCI  15
SAINT CLOUD    CLOUDY    33  30  88 NW12G22   29.92R WCI  24
MINNEAPOLIS    CLOUDY    31  28  89 NW10      29.90R FOG     WCI  22
$$

  *****  WEATHER ACROSS SOUTH DAKOTA  *****

CITY           SKY/WX    TMP DP  RH WIND       PRES   REMARKS
SIOUX FALLS    CLOUDY    32  29  88 NW23G35   30.08R WCI  19
BROOKINGS      NOT AVBL
WATERTOWN      CLOUDY    29  25  85 NW23G32   30.09R WCI  15
HURON          CLOUDY    33  27  78 NW23G31   30.18R WCI  21
SISSETON         N/A     29  25  85 N32G40    30.12R WCI  13
ABERDEEN       CLOUDY    32  26  78 N22G31    30.20R WCI  19
MITCHELL       CLOUDY    34  29  82 NW24G30   30.19R WCI  21
PIERRE         CLOUDY    36  27  69 NW21G30   30.27R
MOBRIDGE       CLOUDY    35  28  75 NW17G26   30.24R WCI  25
RAPID CITY     MOCLDY    32  25  75 N25G31    30.33S WCI  19
$$

  *****  SOME WEATHER IN NEARBY STATES *****

CITY           SKY/WX    TMP DP  RH WIND       PRES   REMARKS
GLASGOW MT     CLEAR     25  22  88 NW5       30.41R WCI  19
GREAT FALLS MT CLEAR     28  28 100 SW3       30.36F FOG
CHEYENNE WY    CLOUDY    35  25  66 N13       30.33S
SCOTTSBLUFF NE MOCLDY    36  26  67 NW13      30.35R
OMAHA NE       CLOUDY    38  29  70 NW26G47   30.02R
DES MOINES IA  CLOUDY    37  31  78 N17G35    29.90R
DAVENPORT IA   CLEAR     30  26  85 N5        29.69R
CHICAGO IL     CLOUDY    35  26  69 S10       29.75F
EAU CLAIRE WI  CLOUDY    28  25  88 NW7       29.84R FOG     WCI  21
LA CROSSE WI   CLOUDY    32  28  85 NW6       29.82R
$$

  *****  SOME NATIONAL WEATHER *****

CITY           SKY/WX    TMP DP  RH WIND       PRES   REMARKS
LA GUARDIA NY  CLEAR     22   7  52 N6        30.31R WCI  14
RALEIGH NC     PTCLDY    23  16  74 CALM      30.34R
ATLANTA GA     MOCLDY    39  27  62 CALM      30.29R
NEW ORLEANS LA PTCLDY    49  44  83 CALM      30.23S
OKLAHOMA CITY  MOCLDY    59  34  39 NW15      30.09R
ALBUQUERQUE NM MOCLDY    45  30  55 NE8       30.28R
SALT LAKE CITY PTCLDY    34  32  92 S3        30.37S
LOS ANGELES CA CLOUDY    65  48  54 CALM      30.06F
BOISE ID       CLEAR     36  34  92 SE9       30.41R
SEATTLE WA     PTCLDY    43  40  89 N8        30.37R
$$

*** WEATHER ACROSS MANITOBA...SASKATCHEWAN AND ONTARIO ***
                ***ONTARIO***

CITY           SKY/WX    TMP DP  RH WIND       PRES   REMARKS
GERALDTON      LGT SNOW N/A N/A N/A NE8         N/A  VSB 1
THUNDER BAY    CLOUDY    28  27  93 W7        29.78R WCI  21
SIOUX LOOKOUT  FLURRIES  14  10  85 N10G18    29.91R WCI   1
TORONTO        CLOUDY    21  14  73 S5        30.20F WCI  15
BIG TROUT LK   FLURRIES  -9 -15  77 N5        30.14R WCI -21
PICKLE LAKE    NOT AVBL
DRYDEN         CLOUDY    16  14  93 NW8G17    29.93R WCI   5
KENORA         CLOUDY    16  14  93 N16G25    30.00R WCI   0
$$
                *** MANITOBA***

CITY           SKY/WX    TMP DP  RH WIND       PRES   REMARKS
BRANDON        CLOUDY    18  12  79 NW21      30.29R WCI   1
DAUPHIN        CLOUDY     9   5  85 N12       30.36R WCI  -6
ISLAND LAKE    FLURRIES  -6 -11  77 N8        30.24R WCI -21
PILOT MOUND      N/A     14  12  92 N7          N/A  WCI   4
THE PAS        FLURRIES  -8 -13  77 NW12      30.43R WCI -27
THOMPSON       FLURRIES -11 -18  70 NW3       30.35R
WINNIPEG       FLURRIES  12   5  73 NW22G29   30.24R WCI  -7
LYNN LAKE      CLEAR    -18 -24  76 NW13      30.38R WCI -41
CHURCHILL      CLEAR    -22 -31  63 W14G20    30.26S WCI -47
GILLAM         FLURRIES -17 -24  70 NW9       30.29S WCI -36
$$
                ***SASKATCHEWAN***

CITY           SKY/WX    TMP DP  RH WIND       PRES   REMARKS
ESTEVAN        FLURRIES  21  18  86 NW23      30.35R WCI   5
KINDERSLEY     PTCLDY     9   5  85 VRB2      30.41S
LLOYDMINSTER   NOT AVBL
PRINCE ALBERT  FLURRIES   5   1  85 N6        30.47R WCI  -6
REGINA         CLOUDY    19  16  86 N14       30.38R WCI   6
YORKTON        FLURRIES  10   5  79 NW12      30.36R WCI  -4
N. BATTLEFORD  CLOUDY     7   5  92 NW7       30.47R WCI  -5
LA RONGE       PTCLDY    -8 -13  77 NW7       30.51R WCI -22
SASKATOON      FLURRIES  14   9  79 N8        30.45S WCI   3
SWIFT CURRENT  CLEAR     18  16  93 NW8       30.38R WCI   7
$$
NOTE: THESE ARE AUTOMATED STATIONS WITH LIMITED QUALITY CONTROL
      "FAIR" INDICATES FEW OR NO CLOUDS BELOW 12,000 FEET WITH NO
      SIGNIFICANT WEATHER AND/OR OBSTRUCTIONS TO VISIBILITY.
      SKY/WX - SKY CONDITION AND SIGNIFICANT WEATHER.
      TMP - AIR TEMPERATURE.    DP   - DEWPOINT TEMPERATURE.
      RH  - RELATIVE HUMIDITY.  PRES - PRESSURE.
      HX  - HEAT INDEX.         WCI  - WIND CHILL INDEX.
$



USA.gov is the U.S. government's official web portal to all federal, state and local government web resources and services.